FW6474 Weather Reports


time (UTC)temp
C
wind
direction
speed
KPH
gust
KPH
rain 1hr
cm
rain 24hr
cm
rain mn
cm
humidity
%
barometer
mb
20260503194221 17 258 9.7 27.4 0.00 0.00 0.00 39 1011.0
20260503193720 17 283 9.7 29.0 0.00 0.00 0.00 39 1011.1
20260503193220 17 261 12.9 30.6 0.00 0.00 0.00 39 1011.1
20260503192719 17 214 16.1 38.6 0.00 0.00 0.00 39 1011.3
20260503192220 17 240 16.1 38.6 0.00 0.00 0.00 38 1011.3
20260503191720 17 298 12.9 37.0 0.00 0.00 0.00 39 1011.2
20260503191452 17 209 12.9 35.4 0.00 0.00 0.00 38 1011.4
20260503190716 17 220 12.9 35.4 0.00 0.00 0.00 39 1011.4
20260503190215 18 236 12.9 38.6 0.00 0.00 0.00 38 1011.5
20260503185716 18 115 11.3 38.6 0.00 0.00 0.00 39 1011.6
20260503185215 18 220 9.7 25.7 0.00 0.00 0.00 40 1011.6
20260503184716 17 265 11.3 29.0 0.00 0.00 0.00 39 1011.7
20260503184215 17 228 11.3 29.0 0.00 0.00 0.00 41 1011.8
20260503183716 16 245 12.9 29.0 0.00 0.00 0.00 40 1011.8
20260503183449 16 318 12.9 33.8 0.00 0.00 0.00 40 1012.0
20260503182716 16 224 12.9 33.8 0.00 0.00 0.00 39 1012.1
20260503182213 16 166 12.9 30.6 0.00 0.00 0.00 40 1012.1
20260503181713 16 248 12.9 32.2 0.00 0.00 0.00 41 1012.2
20260503181214 17 240 11.3 32.2 0.00 0.00 0.00 39 1012.2
20260503180715 17 247 12.9 32.2 0.00 0.00 0.00 39 1012.3
20260503180444 16 267 14.5 38.6 0.00 0.00 0.00 40 1012.4
20260503175713 16 210 14.5 38.6 0.00 0.00 0.00 39 1012.4
20260503175213 16 269 14.5 32.2 0.00 0.00 0.00 41 1012.4
20260503174715 16 261 14.5 35.4 0.00 0.00 0.00 40 1012.6
20260503174213 16 240 14.5 35.4 0.00 0.00 0.00 40 1012.6
20260503173713 16 293 11.3 30.6 0.00 0.00 0.00 40 1012.6
20260503173213 16 249 9.7 25.7 0.00 0.00 0.00 41 1012.6
20260503172946 16 300 11.3 27.4 0.00 0.00 0.00 41 1012.7
20260503172216 16 198 16.1 29.0 0.00 0.00 0.00 41 1012.9
20260503171711 15 253 17.7 43.5 0.00 0.00 0.00 40 1013.0
20260503171435 16 255 14.5 43.5 0.00 0.00 0.00 40 1013.0
20260503170658 16 217 11.3 25.7 0.00 0.00 0.00 40 1013.1
20260503170423 15 287 14.5 27.4 0.00 0.00 0.00 41 1013.2
20260503150539 15 264 9.7 25.7 0.00 0.00 0.00 43 1014.0
20260503130843 9 258 9.7 25.7 0.00 0.00 0.00 53 1014.9
20260503130338 8 264 8.0 20.9 0.00 0.00 0.00 53 1014.9
20260503130104 8 253 6.4 17.7 0.00 0.00 0.00 54 1014.9
20260503110620 3 224 1.6 8.0 0.00 0.00 0.00 67 1015.1
20260503110113 3 232 1.6 4.8 0.00 0.00 0.00 67 1015.3
20260503090356 3 231 1.6 6.4 0.00 0.00 0.00 64 1015.9
20260503081256 3 247 1.6 4.8 0.00 0.00 0.00 64 1016.2
20260503080750 3 239 1.6 6.4 0.00 0.00 0.00 64 1016.3
20260503080520 3 212 1.6 6.4 0.00 0.00 0.00 64 1016.2
20260503072749 4 257 3.2 9.7 0.00 0.00 0.00 64 1016.2
20260503072248 4 240 3.2 9.7 0.00 0.00 0.00 64 1016.2
20260503071749 4 263 1.6 9.7 0.00 0.00 0.00 64 1016.1
20260503071250 4 288 1.6 8.0 0.00 0.00 0.00 65 1016.2
20260503070748 4 236 1.6 8.0 0.00 0.00 0.00 64 1016.1
20260503070250 4 278 3.2 8.0 0.00 0.00 0.00 64 1016.2
20260503054640 4 215 0.0 3.2 0.00 0.00 0.00 63 1016.7
20260503054406 5 231 0.0 3.2 0.00 0.00 0.00 63 1016.7
20260503053629 5 229 0.0 4.8 0.00 0.00 0.00 62 1016.8
20260503053122 5 240 1.6 4.8 0.00 0.00 0.00 62 1016.8
20260503052616 5 249 1.6 6.4 0.00 0.00 0.00 62 1016.8
20260503052110 5 213 1.6 8.0 0.00 0.00 0.00 62 1016.9
20260503051604 5 259 3.2 8.0 0.00 0.00 0.00 61 1016.9
20260503051059 5 238 3.2 8.0 0.00 0.00 0.00 61 1017.0
20260503050552 5 233 3.2 11.3 0.00 0.00 0.00 61 1016.9
20260503050046 5 288 3.2 11.3 0.00 0.00 0.00 61 1016.9
20260503045540 5 231 0.0 4.8 0.00 0.00 0.00 62 1017.0
20260503045308 5 224 0.0 4.8 0.00 0.00 0.00 62 1017.0
20260503044536 5 227 0.0 3.2 0.00 0.00 0.00 62 1017.1
20260503044035 5 225 0.0 3.2 0.00 0.00 0.00 62 1017.1
20260503043535 5 233 0.0 3.2 0.00 0.00 0.00 61 1017.0
20260503043035 5 213 1.6 6.4 0.00 0.00 0.00 61 1017.1
20260503042535 5 226 1.6 6.4 0.00 0.00 0.00 61 1017.1
20260503042306 5 234 0.0 4.8 0.00 0.00 0.00 61 1017.1
20260503041535 5 235 0.0 6.4 0.00 0.00 0.00 61 1017.2
20260503041034 5 226 0.0 6.4 0.00 0.00 0.00 61 1017.2
20260503040533 5 226 0.0 1.6 0.00 0.00 0.00 61 1017.1
20260503040034 5 217 0.0 1.6 0.00 0.00 0.00 60 1017.2
20260503035526 5 188 0.0 1.6 0.00 0.00 0.00 60 1017.3
20260503035020 5 222 0.0 3.2 0.00 0.00 0.00 60 1017.3
20260503034515 5 229 0.0 3.2 0.00 0.00 0.00 60 1017.3
20260503034009 5 214 0.0 3.2 0.00 0.00 0.00 60 1017.3
20260503033502 5 245 0.0 3.2 0.00 0.00 0.00 60 1017.3
20260503032957 5 200 0.0 3.2 0.00 0.00 0.00 61 1017.4
20260503032451 5 207 0.0 3.2 0.00 0.00 0.00 60 1017.3
20260503031945 5 210 0.0 1.6 0.00 0.00 0.00 61 1017.3
20260503031439 5 202 0.0 1.6 0.00 0.00 0.00 61 1017.4
20260503030933 5 186 0.0 1.6 0.00 0.00 0.00 63 1017.5
20260503030427 4 213 0.0 1.6 0.00 0.00 0.00 64 1017.4
20260503025921 4 211 0.0 0.0 0.00 0.00 0.00 65 1017.5
20260503025647 4 211 0.0 0.0 0.00 0.00 0.00 63 1017.5
20260503024909 4 211 0.0 1.6 0.00 0.00 0.00 63 1017.5
20260503024634 5 211 0.0 1.6 0.00 0.00 0.00 63 1017.5
20260503023857 4 215 0.0 1.6 0.00 0.00 0.00 63 1017.6
20260503023351 4 216 0.0 1.6 0.00 0.00 0.00 63 1017.6
20260503022847 4 226 0.0 0.0 0.00 0.00 0.00 62 1017.7
20260503022842 5 226 0.0 0.0 0.00 0.00 0.00 62 1017.6
20260503022105 5 226 0.0 0.0 0.00 0.00 0.00 62 1017.6
20260503021327 5 226 0.0 0.0 0.00 0.00 0.00 61 1017.7
20260503021051 5 233 0.0 1.6 0.00 0.00 0.00 61 1017.5
20260503020315 5 238 0.0 1.6 0.00 0.00 0.00 61 1017.5
20260503015809 5 253 0.0 1.6 0.00 0.00 0.00 61 1017.5
20260503015305 5 253 0.0 0.0 0.00 0.00 0.00 59 1017.5
20260503014757 5 253 0.0 0.0 0.00 0.00 0.00 59 1017.4
20260503014521 5 253 0.0 0.0 0.00 0.00 0.00 59 1017.5
20260503013745 5 253 0.0 0.0 0.00 0.00 0.00 58 1017.4
20260503013238 5 253 0.0 0.0 0.00 0.00 0.00 57 1017.4
20260503012733 6 253 0.0 0.0 0.00 0.00 0.00 57 1017.4
20260503012728 6 253 0.0 0.0 0.00 0.00 0.00 56 1017.4
20260503011720 6 253 0.0 0.0 0.00 0.00 0.00 55 1017.4
20260503011214 6 253 0.0 1.6 0.00 0.00 0.00 54 1017.3
20260503010709 6 253 0.0 1.6 0.00 0.00 0.00 52 1017.4
20260503010203 7 263 0.0 1.6 0.00 0.00 0.00 51 1017.4
20260503005657 7 263 0.0 1.6 0.00 0.00 0.00 50 1017.3
20260503005150 7 264 0.0 0.0 0.00 0.00 0.00 50 1017.3
20260503004646 7 264 0.0 1.6 0.00 0.00 0.00 50 1017.3
20260503004641 7 264 0.0 1.6 0.00 0.00 0.00 49 1017.3
20260503003633 8 264 0.0 4.8 0.00 0.00 0.00 48 1017.3
20260503003127 8 259 1.6 6.4 0.00 0.00 0.00 47 1017.3
20260503003122 8 268 1.6 9.7 0.00 0.00 0.00 47 1017.3
20260503002115 8 244 1.6 9.7 0.00 0.00 0.00 47 1017.2
20260503001609 8 272 1.6 3.2 0.00 0.00 0.00 47 1017.2
20260503001604 8 264 1.6 4.8 0.00 0.00 0.00 47 1017.2
20260503000557 8 263 3.2 9.7 0.00 0.00 0.00 47 1017.2
20260503000050 8 293 1.6 9.7 0.00 0.00 0.00 47 1017.3
20260502235816 8 266 3.2 8.0 0.00 0.00 0.00 46 1017.3
20260502235039 8 240 3.2 9.7 0.00 0.00 0.00 46 1017.3
20260502234533 8 304 1.6 9.7 0.00 0.00 0.00 45 1017.3
20260502234027 8 6 3.2 9.7 0.00 0.00 0.00 46 1017.3
20260502233751 8 282 3.2 9.7 0.00 0.00 0.00 45 1017.3
20260502233015 8 282 4.8 9.7 0.00 0.00 0.00 45 1017.4
20260502232509 8 257 4.8 9.7 0.00 0.00 0.00 45 1017.4
20260502232003 8 303 4.8 12.9 0.00 0.00 0.00 45 1017.4
20260502231456 8 310 4.8 12.9 0.00 0.00 0.00 45 1017.3
20260502230951 8 295 4.8 14.5 0.00 0.00 0.00 46 1017.4
20260502230445 8 320 4.8 14.5 0.00 0.00 0.00 46 1017.4
20260502225939 8 340 4.8 14.5 0.00 0.00 0.00 46 1017.4
20260502225433 8 307 4.8 14.5 0.00 0.00 0.00 47 1017.4
20260502224926 8 222 4.8 12.9 0.00 0.00 0.00 46 1017.4
20260502224423 8 303 4.8 20.9 0.00 0.00 0.00 46 1017.4
20260502224418 8 205 6.4 20.9 0.00 0.00 0.00 46 1017.5
20260502223640 8 288 4.8 12.9 0.00 0.00 0.00 45 1017.4
20260502222903 8 272 6.4 14.5 0.00 0.00 0.00 46 1017.4
20260502222357 8 293 8.0 16.1 0.00 0.00 0.00 45 1017.4
20260502221850 8 283 6.4 16.1 0.00 0.00 0.00 46 1017.4
20260502221616 8 242 6.4 14.5 0.00 0.00 0.00 47 1017.5
20260502221109 8 300 6.4 12.9 0.00 0.00 0.00 46 1017.4
20260502220333 8 307 4.8 14.5 0.00 0.00 0.00 46 1017.4
20260502215827 8 232 3.2 12.9 0.00 0.00 0.00 46 1017.4
20260502215321 8 264 4.8 17.7 0.00 0.00 0.00 47 1017.4
20260502214815 8 288 4.8 17.7 0.00 0.00 0.00 46 1017.4
20260502214309 8 309 4.8 12.9 0.00 0.00 0.00 47 1017.5
20260502213813 8 307 8.0 16.1 0.00 0.00 0.00 46 1017.3
20260502213809 8 289 6.4 16.1 0.00 0.00 0.00 46 1017.4
20260502212805 8 220 6.4 16.1 0.00 0.00 0.00 47 1017.4
20260502212306 8 298 6.4 19.3 0.00 0.00 0.00 47 1017.4
20260502211811 8 278 4.8 16.1 0.00 0.00 0.00 46 1017.5
20260502211806 8 300 6.4 19.3 0.00 0.00 0.00 47 1017.4
20260502211036 8 293 3.2 16.1 0.00 0.00 0.00 45 1017.5
20260502210306 8 311 4.8 16.1 0.00 0.00 0.00 46 1017.5
20260502205806 8 8 6.4 16.1 0.00 0.00 0.00 46 1017.4
20260502205306 8 288 8.0 20.9 0.00 0.00 0.00 47 1017.5
20260502204813 8 304 6.4 12.9 0.00 0.00 0.00 46 1017.5
20260502204805 8 305 6.4 20.9 0.00 0.00 0.00 46 1017.4
20260502203810 8 294 6.4 12.9 0.00 0.00 0.00 44 1017.6
20260502203308 8 306 4.8 14.5 0.00 0.00 0.00 45 1017.5
20260502202810 8 304 4.8 14.5 0.00 0.00 0.00 44 1017.6
20260502202304 8 312 4.8 9.7 0.00 0.00 0.00 46 1017.6
20260502201757 8 304 6.4 17.7 0.00 0.00 0.00 46 1017.6
20260502201522 8 298 6.4 17.7 0.00 0.00 0.00 45 1017.7
20260502200742 8 6 4.8 11.3 0.00 0.00 0.00 45 1017.8
20260502200507 8 280 4.8 12.9 0.00 0.00 0.00 45 1017.8
20260502195738 8 293 6.4 14.5 0.00 0.00 0.00 44 1018.0
20260502195733 8 294 6.4 14.5 0.00 0.00 0.00 45 1017.9
20260502195006 8 306 6.4 12.9 0.00 0.00 0.00 45 1018.0